Middlesboro, KY

12:56 PM CDT on May 26, 2017 (GMT -0500)
Middlesboro

Weather History for K1A6 - September, 2013

Change the Weather History Date:

Thursday, September 12, 2013

  Actual Average (KLOZ) Record (KLOZ)
Temperature  
Mean Temperature 76 °F -  
Max Temperature 87 °F 80 °F 90 °F (2005)
Min Temperature 67 °F 58 °F 43 °F (1976)
Cooling Degree Days 12    
Growing Degree Days 26 (Base 50)    
Moisture  
Dew Point 68 °F    
Average Humidity 86    
Maximum Humidity 100    
Minimum Humidity 51    
Precipitation  
Precipitation 0.47 in - - ()
Sea Level Pressure  
Sea Level Pressure 30.04 in    
Wind  
Wind Speed 1 mph (West)    
Max Wind Speed 18 mph    
Max Gust Speed 26 mph    
Visibility 7 miles    
Events Fog , Rain , Thunderstorm    
Averages and records for this station are not official NWS values.
T = Trace of Precipitation, MM = Missing Value Source: NWS Daily Summary

Daily Weather History Graph

Daily Weather History Graph

Search for Another Location

Airport or City:

Trip Planner

Search our weather history database for the weather conditions in past years. The results will help you decide how hot, cold, wet, or windy it might be!

Date:

Astronomy

Sep. 12, 2013 Rise Set
Actual Time 6:15 AM CDT 6:46 PM CDT
Civil Twilight 5:49 AM CDT 7:12 PM CDT
Nautical Twilight 5:18 AM CDT 7:42 PM CDT
Astronomical Twilight 4:47 AM CDT 8:14 PM CDT
Moon 1:31 PM CDT (9/12) 11:51 PM CDT (9/12)
Length of Visible Light 13h 23m
Length of Day
12h 31m
Waxing Crescent, 50% of the Moon is Illuminated
Sep 12
Waxing Crescent
Sep 12
First Quarter
Sep 19
Full
Sep 26
Last Quarter
Oct 4
New

Hourly Weather History & Observations

Time (CDT) Temp. Heat Index Dew Point Humidity Pressure Visibility Wind Dir Wind Speed Gust Speed Precip Events Conditions
12:15 AM 68.2 °F - 67.3 °F 97% 30.13 in 7.0 mi Calm Calm - N/A   Clear
12:35 AM 67.6 °F - 67.1 °F 98% 30.13 in 7.0 mi Calm Calm - N/A   Clear
12:55 AM 67.6 °F - 67.1 °F 98% 30.12 in 7.0 mi Calm Calm - N/A   Scattered Clouds
1:15 AM 67.1 °F - 66.7 °F 99% 30.12 in 5.0 mi Calm Calm - N/A   Clear
1:35 AM 67.5 °F - 66.7 °F 98% 30.12 in 7.0 mi Calm Calm - N/A   Mostly Cloudy
1:55 AM 67.5 °F - 67.1 °F 99% 30.12 in 5.0 mi Calm Calm - N/A   Overcast
2:15 AM 67.5 °F - 66.9 °F 98% 30.12 in 7.0 mi Calm Calm - N/A   Overcast
2:35 AM 68.0 °F - 67.1 °F 97% 30.12 in 5.0 mi Calm Calm - N/A   Overcast
2:55 AM 67.6 °F - 67.1 °F 98% 30.12 in 7.0 mi Calm Calm - N/A   Scattered Clouds
3:15 AM 67.5 °F - 67.1 °F 99% 30.11 in 5.0 mi Calm Calm - N/A   Scattered Clouds
3:35 AM 67.3 °F - 66.7 °F 98% 30.11 in 5.0 mi Calm Calm - N/A   Scattered Clouds
3:55 AM 67.3 °F - 66.7 °F 98% 30.11 in 5.0 mi Calm Calm - N/A   Clear
4:15 AM 67.3 °F - 67.1 °F 99% 30.11 in 4.0 mi Calm Calm - N/A   Mostly Cloudy
4:35 AM 67.6 °F - 67.5 °F 99% 30.11 in 3.0 mi Calm Calm - N/A   Overcast
4:55 AM 67.3 °F - 67.3 °F 100% 30.11 in 2.5 mi Calm Calm - N/A   Overcast
5:15 AM 67.6 °F - 67.5 °F 99% 30.11 in 4.0 mi Calm Calm - N/A   Overcast
5:35 AM 67.6 °F - 67.6 °F 100% 30.11 in 3.0 mi Calm Calm - N/A   Overcast
5:55 AM 68.0 °F - 67.5 °F 98% 30.11 in 4.0 mi Calm Calm - N/A   Overcast
6:15 AM 68.0 °F - 67.5 °F 98% 30.11 in 3.0 mi Calm Calm - N/A   Overcast
6:35 AM 68.0 °F - 67.3 °F 98% 30.11 in 4.0 mi Calm Calm - N/A   Overcast
6:55 AM 68.0 °F - 67.3 °F 98% 30.11 in 4.0 mi Calm Calm - N/A   Overcast
7:15 AM 68.0 °F - 67.5 °F 98% 30.12 in 3.0 mi Calm Calm - N/A   Overcast
7:35 AM 68.0 °F - 67.5 °F 98% 30.11 in 4.0 mi Calm Calm - N/A   Overcast
7:55 AM 68.4 °F - 67.5 °F 97% 30.11 in 4.0 mi Calm Calm - N/A   Overcast
8:15 AM 68.9 °F - 67.6 °F 96% 30.11 in 5.0 mi Calm Calm - N/A   Overcast
8:35 AM 69.1 °F - 67.8 °F 96% 30.11 in 7.0 mi Calm Calm - N/A   Overcast
8:55 AM 70.0 °F - 68.2 °F 94% 30.11 in 7.0 mi Calm Calm - N/A   Overcast
9:15 AM 70.7 °F - 68.4 °F 92% 30.11 in 7.0 mi Calm Calm - N/A   Overcast
9:35 AM 71.8 °F - 68.9 °F 91% 30.10 in 7.0 mi Calm Calm - N/A   Mostly Cloudy
9:55 AM 72.7 °F - 68.9 °F 88% 30.09 in 10.0 mi Calm Calm - N/A   Mostly Cloudy
10:15 AM 75.7 °F - 70.0 °F 82% 30.09 in 10.0 mi Calm Calm - N/A   Mostly Cloudy
10:35 AM 76.6 °F - 70.2 °F 80% 30.09 in 10.0 mi Calm Calm - N/A   Mostly Cloudy
10:55 AM 80.1 °F 83.4 °F 70.7 °F 73% 30.08 in 10.0 mi Calm Calm - N/A   Mostly Cloudy
11:15 AM 82.2 °F 86.4 °F 70.9 °F 68% 30.07 in 10.0 mi WSW 4.6 mph - N/A   Mostly Cloudy
11:35 AM 81.7 °F 84.9 °F 69.1 °F 65% 30.07 in 10.0 mi West 3.5 mph - N/A   Mostly Cloudy
11:55 AM 82.6 °F 86.1 °F 69.4 °F 64% 30.06 in 10.0 mi WNW 4.6 mph - N/A   Mostly Cloudy
12:15 PM 84.0 °F 87.8 °F 69.1 °F 61% 30.05 in 10.0 mi WNW 4.6 mph - N/A   Mostly Cloudy
12:35 PM 84.0 °F 87.8 °F 69.1 °F 61% 30.04 in 10.0 mi North 3.5 mph - N/A   Mostly Cloudy
12:55 PM 84.7 °F 88.5 °F 68.9 °F 59% 30.03 in 10.0 mi WNW 6.9 mph - N/A   Mostly Cloudy
1:15 PM 85.5 °F 88.8 °F 68.4 °F 56% 30.02 in 10.0 mi Calm Calm - N/A   Clear
1:35 PM 85.1 °F 89.4 °F 69.8 °F 60% 30.01 in 10.0 mi WNW 5.8 mph - N/A   Mostly Cloudy
1:55 PM 85.5 °F 89.1 °F 68.7 °F 57% 29.99 in 10.0 mi Calm Calm - N/A   Scattered Clouds
2:15 PM 86.7 °F 90.3 °F 68.0 °F 54% 29.97 in 10.0 mi West 5.8 mph - N/A   Scattered Clouds
2:35 PM 86.4 °F 89.7 °F 67.8 °F 54% 29.96 in 10.0 mi West 5.8 mph - N/A   Clear
2:55 PM 86.9 °F 89.6 °F 66.7 °F 51% 29.94 in 10.0 mi Calm Calm - N/A   Scattered Clouds
3:15 PM 86.7 °F 89.6 °F 67.1 °F 52% 29.94 in 10.0 mi SW 4.6 mph - N/A   Scattered Clouds
3:35 PM 85.3 °F 87.9 °F 67.1 °F 54% 29.93 in 10.0 mi West 5.8 mph - N/A Thunderstorm Scattered Clouds
3:55 PM 84.9 °F 88.5 °F 68.5 °F 58% 29.94 in 10.0 mi West 3.5 mph - N/A   Clear
4:15 PM 85.5 °F 89.4 °F 69.3 °F 58% 29.94 in 10.0 mi Calm Calm - N/A   Clear
4:35 PM 83.8 °F 88.1 °F 69.8 °F 63% 29.94 in 10.0 mi WNW 3.5 mph - N/A   Mostly Cloudy
4:55 PM 82.6 °F 86.8 °F 70.7 °F 67% 29.94 in 10.0 mi Calm Calm - N/A   Overcast
5:15 PM 80.8 °F 85.2 °F 72.5 °F 76% 29.95 in 10.0 mi Calm Calm - N/A Thunderstorm Scattered Clouds
5:35 PM 79.0 °F - 72.5 °F 80% 29.94 in 10.0 mi WNW 3.5 mph - N/A Thunderstorm Scattered Clouds
5:55 PM 78.3 °F - 69.3 °F 74% 29.96 in 10.0 mi West 18.4 mph 26.5 mph N/A Thunderstorm Thunderstorm
6:15 PM 70.3 °F - 67.3 °F 90% 29.94 in 1.2 mi SW 5.8 mph 12.7 mph 0.47 in Rain , Thunderstorm Light Thunderstorms and Rain
6:35 PM 69.3 °F - 67.5 °F 94% 29.95 in 10.0 mi Calm Calm - 0.47 in   Scattered Clouds
6:55 PM 70.7 °F - 66.7 °F 87% 29.96 in 10.0 mi Calm Calm - 0.47 in   Scattered Clouds
7:15 PM 69.3 °F - 67.5 °F 94% 29.95 in 10.0 mi Calm Calm - N/A   Clear
7:35 PM 69.4 °F - 67.3 °F 93% 29.95 in 10.0 mi WNW 3.5 mph - N/A Thunderstorm Clear
7:55 PM 69.1 °F - 67.5 °F 95% 29.97 in 10.0 mi Calm Calm - N/A   Scattered Clouds
8:15 PM 68.9 °F - 68.0 °F 97% 29.98 in 10.0 mi Calm Calm - N/A   Mostly Cloudy
8:35 PM 68.9 °F - 68.2 °F 98% 29.98 in 7.0 mi Calm Calm - N/A Rain , Thunderstorm Light Thunderstorms and Rain
8:55 PM 68.9 °F - 68.2 °F 98% 29.98 in 7.0 mi Calm Calm - N/A   Overcast
9:15 PM 68.9 °F - 68.0 °F 97% 29.98 in 7.0 mi Calm Calm - N/A Thunderstorm Overcast
9:35 PM 68.7 °F - 68.4 °F 99% 29.98 in 7.0 mi Calm Calm - N/A   Mostly Cloudy
9:55 PM 68.4 °F - 68.2 °F 99% 29.98 in 5.0 mi Calm Calm - N/A   Scattered Clouds
10:15 PM 68.0 °F - 68.0 °F 100% 29.97 in 4.0 mi Calm Calm - N/A   Mostly Cloudy
10:35 PM 67.8 °F - 67.8 °F 100% 29.97 in 4.0 mi Calm Calm - N/A   Mostly Cloudy
10:55 PM 67.5 °F - 67.5 °F 100% 29.97 in 2.5 mi Calm Calm - N/A   Mostly Cloudy
11:15 PM 67.1 °F - 67.1 °F 100% 29.97 in 3.0 mi Calm Calm - N/A   Overcast
11:35 PM 67.5 °F - 67.5 °F 100% 29.96 in 0.5 mi Calm Calm - N/A Fog Fog
11:55 PM 67.1 °F - 67.1 °F 100% 29.96 in 4.0 mi Calm Calm - N/A   Overcast